User: anonymous
Location: Fort Wayne
(41.1310°N, 85.1290°W)
Time: 10:33:07
(UTC-04:00)
Language:

SL-08 RB Rocket - Orbit

View from above orbital plane
View from above orbital plane
View from above satellite
View from above satellite

Ground track
Ground track

The orbit data is extracted from the following two-line orbital elements,

1 26387U 00033D   14108.84146270  .00001196  00000-0  21996-3 0  4798
2 26387 098.1102 177.1544 0027543 043.6074 090.0285 14.67208119738385
Epoch (UTC): 18 April 2014 20:11:42
Eccentricity: 0.0027543
inclination: 98.1102°
perigee height: 650 km
apogee height: 689 km
right ascension of ascending node: 177.1544°
argument of perigee: 43.6074°
revolutions per day: 14.67208119
mean anomaly at epoch: 90.0285°
orbit number at epoch: 73838

The dashed part of the orbit path shows where the satellite is in the earth's shadow,  

DLR